COSMOS 1275 DEB, 42197

Orbit data source: Space-Track

COSMOS 1275 DEB, 42197 is space debris in LEO originally from a launch on Thu, 04 Jun 1981 UTC launched from the Plesetsk Missile And Space Complex (PKMTR). Debris objects in space refer to the collection of defunct objects orbiting the Earth. Examples of debris include non-operational satellites, rocket bodies, and fragments generated from explosions, collisions, or faulty payload assembly.

Loading next visibility...
COSMOS 1275 DEB details
Identifier
42197, 1981-053TM
Orbit
LEO
Last TLE update1 day ago
Origin
Flag of CISGUKOS (CIS)
ManufacturerUnknown
MissionSpacecraft
Bus & MotorUnknown
MassUnknown
Launch date (UTC)
1981-06-04 (44 years ago)
Launch vehicleUnknown
Launch site
Plesetsk Missile And Space Complex (PKMTR)
Object type
Payload
Rocket body
Debris
Shape & HBRUnknown
Radar Cross SectionSmall (<0.1 m²)

Expand to show TLE details & history

TLE from 1 day ago
0 COSMOS 1275 DEB
1 42197U 81053TM  24346.95554818  .00001543  00000-0  16641-2 0  9997
2 42197  82.8477  70.3442 0113688 336.9368  22.6703 13.70017743551617
Epoch: 2024-12-11T22:55Z
Definitive object data (Epoch: 2024-12-11T22:55:59.362Z)
Latitude-0.00001°
Longitude5.20405°
Altitude925.132 km
Speed7.428 km/s
True Right ascension04h 41m 22s
True Declination0° 00' 00"
Sunlit
Object was in full shadow at TLE epoch
Visualization TLE readout
Latitude67.19409°
Longitude21.43149°
Altitude1,017.673 km
Speed7.346 km/s
Apparent Right ascension20h 37m 19s
Apparent Declination48° 48' 57"
Sunlit
Object is in full shadow
Visualization observer readout
Local Sidereal Time07:03:26
Azimuth344.793° N
Elevation1.126°
Doppler factor1
Orbital elements
Apogee altitude1,080.509 km
Perigee altitude912.823 km
Semi-major axis7,374.803 km
Eccentricity0.0113688
Inclination82.8477°
RAAN70.3442°
Arg. of periapsis336.9368°
True anomaly23.17908°
Mean anomaly22.6703°
Eccentric anomaly22.92402°
Mean motion3.42703 °/min
BSTAR0.0016641
Orbital period105.05 mins
Loading maneuver chart data...
Loading historical data...
Loading historical data...
Loading historical data...
Loading historical data...
Loading historical data...
Loading historical data...
Loading historical data...

COSMOS 1275 DEB Visibility forecast

Observer location: undefined°, undefined

Span
Click to sort rows by Start time (UTC) header in descending order
Start Az.
Max El. time (UTC)
Max El. Az.
Max El.
End time (UTC)
End Az.
6 mins2024-12-13 15:50:49.120Z35.818° NE2024-12-13 15:53:49.120Z63.361° ENE14.21°2024-12-13 15:56:49.120Z91.579° ESE
11 mins2024-12-13 17:35:49.120Z353.067° N2024-12-13 17:40:49.120Z5.204° NNE44.999°2024-12-13 17:46:49.120Z174.73° S
4 mins2024-12-13 19:23:49.120Z299.083° NW2024-12-13 19:25:49.120Z280.361° WNW13.289°2024-12-13 19:27:49.120Z261.787° W
9 mins2024-12-14 05:23:49.120Z136.729° SSE2024-12-14 05:27:49.120Z83.017° E26.878°2024-12-14 05:32:49.120Z28.439° NE
10 mins2024-12-14 07:08:49.120Z223.086° SW2024-12-14 07:13:49.120Z294.706° NW31.027°2024-12-14 07:18:49.120Z350.135° N
|